Location: Marstown
(39.5056°N, 77.0820°W)
Time: 06:42:38
(UTC-04:00)

ISS - Visible Passes

Search period start: 18 July 2018 00:00
Search period end: 28 July 2018 00:00
Orbit: 402 x 408 km, 51.6° (Epoch: 18 July)

Date Brightness Start Highest point End Pass type
(mag) Time Alt. Az. Time Alt. Az. Time Alt. Az.
18 Jul -0.6 01:00:29 14° NNW 01:00:39 14° NNW 01:02:33 10° NNE visible
18 Jul -0.2 02:37:43 10° N 02:38:17 10° N 02:38:51 10° NNE visible
18 Jul -1.0 04:13:09 10° NNW 04:15:46 21° NNE 04:18:22 10° ENE visible
18 Jul -3.4 22:28:15 10° SW 22:35:08 - NE 22:30:44 48° SSW visible
19 Jul -1.0 00:07:07 16° NW 00:08:17 19° NNW 00:10:45 10° NNE visible
19 Jul -0.2 01:45:25 10° N 01:45:49 10° N 01:46:12 10° N visible
19 Jul -0.6 03:21:20 10° NNW 03:23:25 16° NNE 03:25:30 10° ENE visible
19 Jul -3.5 04:57:06 10° NW 05:00:23 71° NE 05:03:39 10° ESE visible
19 Jul -3.2 21:36:29 10° SSW 21:39:29 34° SE 21:42:29 10° ENE visible
19 Jul -1.7 23:13:07 10° W 23:15:59 28° NNW 23:18:53 10° NNE visible
20 Jul -0.2 00:52:19 10° NNW 00:53:20 11° N 00:54:21 10° N visible
20 Jul -0.3 02:29:33 10° NNW 02:31:00 12° NNE 02:32:28 10° NE visible
20 Jul -2.3 04:05:06 10° NW 04:08:13 38° NNE 04:11:19 10° ESE visible
20 Jul -2.7 22:20:35 10° WSW 22:23:45 46° NNW 22:26:56 10° NE visible
20 Jul -0.4 23:59:14 10° NW 00:00:53 13° NNW 00:02:33 10° NNE visible
21 Jul -0.1 01:37:44 10° N 01:38:33 11° N 01:39:20 10° NNE visible
21 Jul -1.4 03:13:11 10° NNW 03:15:57 24° NNE 03:18:43 10° E visible
21 Jul -3.5 04:49:24 10° WNW 04:52:33 44° SW 04:55:42 10° SSE visible
21 Jul -3.9 21:28:19 10° SW 21:31:35 88° NW 21:34:52 10° NE visible
21 Jul -0.7 23:06:13 10° WNW 23:08:28 17° NNW 23:10:44 10° NNE visible
22 Jul -0.1 00:45:47 10° N 00:46:02 10° N 00:46:18 10° N visible
22 Jul -0.8 02:21:19 10° NNW 02:23:36 17° NNE 02:25:53 10° ENE visible
22 Jul -3.9 03:57:10 10° NW 04:00:28 90° SSW 04:03:46 10° SE visible
22 Jul -1.3 22:13:23 10° W 22:16:06 24° NNW 22:18:51 10° NNE visible
22 Jul -0.3 23:52:46 10° NNW 23:53:31 11° N 23:54:16 10° N visible
23 Jul -0.4 01:29:28 10° NNW 01:30:47 13° N 01:30:47 13° N visible
23 Jul -2.2 21:20:44 10° WSW 21:23:49 37° NNW 21:26:54 10° NE visible
23 Jul -0.5 22:59:36 10° NW 23:01:01 12° NNW 23:02:27 10° NNE visible
24 Jul -0.4 00:37:39 10° N 00:38:41 11° N 00:39:23 11° NNE visible
24 Jul -0.7 22:06:31 10° WNW 22:08:33 15° NNW 22:10:35 10° NNE visible
24 Jul -0.3 23:45:48 10° N 23:46:09 10° N 23:46:31 10° N visible
25 Jul -1.0 21:13:33 10° WNW 21:16:08 21° NNW 21:18:42 10° NNE visible
25 Jul -0.4 22:53:07 10° NNW 22:53:36 10° N 22:54:05 10° N visible
26 Jul -0.5 00:29:18 10° NNW 00:30:16 13° N 00:30:16 13° N visible
26 Jul -0.6 21:59:52 10° NNW 22:01:03 11° N 22:02:13 10° N visible
26 Jul -0.7 23:37:27 10° NNW 23:38:42 12° N 23:39:33 11° NNE visible
27 Jul -0.8 21:06:42 10° NW 21:08:31 14° NNW 21:10:20 10° NNE visible
27 Jul -0.5 22:45:34 10° N 22:46:09 10° N 22:46:43 10° NNE visible
